Location: Filler
(36.7551°N, 30.4456°E)
Time: 15:01:48
(UTC+00:00)

ATLAS 5 CENTAUR R/B - Visible Passes

Search period start: 14 September 2024 00:00
Search period end: 24 September 2024 00:00
Orbit: 411 x 1157 km, 63.3° (Epoch: 13 September)

Date Brightness Start Highest point End Pass type
(mag) Time Alt. Az. Time Alt. Az. Time Alt. Az.
14 Sep 3.5 01:14:02 19° ENE 01:14:02 19° ENE 01:15:15 10° NE visible
14 Sep 3.0 02:54:38 10° WNW 02:55:58 12° NW 02:57:26 10° NNW visible
15 Sep 2.6 02:22:54 18° NW 02:22:54 18° NW 02:25:11 10° N visible
16 Sep 2.9 01:51:04 19° N 01:51:04 19° N 01:52:32 10° N visible
17 Sep 3.8 01:19:09 13° NNE 01:19:09 13° NNE 01:19:39 10° NNE visible
